Regional Weather Roundup
Issued by NWS

Home | Current Version | Previous Version | Graphics & Text | Print | Product List | Glossary On
Versions: 1 2 3 4 5 6 7 8 9 10 11 12 13 14 15 16 17 18 19 20 21 22 23 24 25 26 27 28 29 30 31 32 33 34 35 36 37 38 39 40 41 42 43 44 45 46 47 48 49 50
716
ASUS45 KBOU 231307
RWRCO

WEATHER ROUNDUP FOR COLORADO
NATIONAL WEATHER SERVICE DENVER/BOULDER CO
700 AM MDT MON OCT 23 2017

NOTE: "FAIR" INDICATES FEW OR NO CLOUDS BELOW 12000 FEET WITH NO
SIGNIFICANT WEATHER AND/OR OBSTRUCTIONS TO VISIBILITY.

COZ001>005-013-030-031-231400-
...NORTHWEST COLORADO...

CITY           SKY/WX    TMP DP  RH WIND       PRES   REMARKS
CRAIG          FAIR      41  30  65 SE3       30.46R
HAYDEN         CLOUDY    45  27  49 SW6       30.48R
MEEKER         FAIR      36  31  82 CALM      30.48R
RABBIT EARS PA PTSUNNY   30  27  86 W20G33    30.49R WCI  18
STEAMBOAT SPGS CLOUDY    48  28  44 W13       30.46S
WALDEN         NOT AVBL
$$

COZ006>008-011-231400-
...WEST CENTRAL VALLEYS...

CITY           SKY/WX    TMP DP  RH WIND       PRES   REMARKS
GRAND JUNCTION FAIR      36  24  62 NE5       30.46R
MONTROSE       FAIR      34  24  67 SE5       30.50R WCI  30
EAGLE          CLOUDY    39  29  67 E5        30.49R
RIFLE          FAIR      35  29  78 CALM      30.48R
DELTA          FAIR      35  24  63 CALM      30.47S
NUCLA          FAIR      36  19  51 E6        30.52R
$$

COZ017>023-064>068-231400-
...SOUTHWEST COLORADO...

CITY           SKY/WX    TMP DP  RH WIND       PRES   REMARKS
DURANGO        FAIR      30  20  66 NE5       30.42S WCI  25
CORTEZ         FAIR      31  22  69 NE9       30.44R WCI  23
PAGOSA SPRINGS FAIR      30  19  64 CALM      30.45F
TELLURIDE      FAIR      37  21  52 CALM      30.59R
WOLF CREEK PAS FAIR      34  21  60 NW6       30.65R WCI  29
$$

COZ009-010-012-014-032>034-037-058>063-231400-
...CENTRAL COLORADO...

CITY           SKY/WX    TMP DP  RH WIND       PRES   REMARKS
ASPEN          MOCLDY    38  29  70 S5        30.51R
BUENA VISTA    FAIR      47  23  39 NW3       30.39F
COPPER MTN     CLOUDY    34  28  80 MISG      30.59R
BERTHOUD PASS  MOCLDY    27  16  63 NW59G72   30.44F WCI   5
COTTONWOOD PAS FAIR      46  28  49 SW36G56   30.41F
GUNNISON       FAIR      26  21  81 S3        30.50F
KREMMLING      CLOUDY    50  27  40 SE3       30.47R
LEADVILLE      CLOUDY    37  21  52 N8        30.51F
MONARCH PASS   FAIR      28  23  80 W41       30.63F WCI  11
SALIDA         FAIR      46  25  43 NW9       30.45R
SUNLIGHT       CLOUDY    32  21  64 W8        30.63R WCI  25
WILKERSON PASS FAIR      34  23  64 NW9G16    30.54R WCI  26
$$

COZ069>075-231400-
...SAN LUIS VALLEY/SANGRE DE CRISTO MOUNTAINS...

CITY           SKY/WX    TMP DP  RH WIND       PRES   REMARKS
ALAMOSA        FAIR      23  18  81 SW3       30.45R
DEL NORTE      FAIR      33  20  58 W9        30.45F WCI  25
LA VETA PASS   FAIR      36  21  55 S20       30.60S
SAGUACHE       FAIR      34  25  69 NE9       30.44F WCI  26
$$

COZ035-036-038>040-231400-
...NORTHERN COLORADO FRONT RANGE...

CITY           SKY/WX    TMP DP  RH WIND       PRES   REMARKS
DENVER INTL AP MOCLDY    42  32  67 NE23G31   30.31R
DMNS CITY PARK   N/A     46  32  56 NE14G33   30.32R
AURORA         MOCLDY    45  33  63 NE22G35   30.32R
FRONT RANGE AP FAIR      43  34  70 NE18G26   30.34R
ERIE MUNI ARPT MOCLDY    47  32  55 E25G36    30.35R
BOULDER MUN AP FAIR      61  28  29 N17G24    30.27R
CENTENNIAL     MOCLDY    57  27  31 NE17G23   30.29R
BROOMFIELD     MOCLDY    59  28  31 E25G32    30.31R
FORT COLLINS   CLOUDY    45  35  68 NE21G28   30.29R
LONGMONT       MOCLDY    51  34  50 E20G31    30.32R
$$

COZ041-046-047-076>085-087-088-231400-
...PIKES PEAK/PALMER DIVIDE AND SOUTHERN FOOTHILLS...

CITY           SKY/WX    TMP DP  RH WIND       PRES   REMARKS
COLO. SPRINGS  MOCLDY    47  29  49 N7        30.31R
A. F. ACADEMY  FAIR      44  26  50 NE9       30.32R
SCHRIEVER AFB  FAIR      48  27  43 N6        30.31R
CHEYENNE MTN   FAIR      54  24  31 NW8       30.29R
ELLICOTT         N/A    N/A N/A N/A N3        30.29R
FALCON         FAIR      47  25  41 NW7       30.34R
FORT CARSON    FAIR      48  29  47 SE3       30.29R
LIMON          FAIR      42  33  70 N22       30.30R
MONUMENT HILL  FAIR      45  28  53 CALM      30.35R
CANON CITY     FAIR      46  28  49 W6        30.28R
WALSENBURG     FAIR      57  23  26 W16G24    30.30R
TRINIDAD       FAIR      51  25  36 NW10      30.27R
$$

COZ042>045-048>051-090-091-231400-
...NORTHEAST COLORADO...

CITY           SKY/WX    TMP DP  RH WIND       PRES   REMARKS
GREELEY ARPT   FAIR      42  33  70 NE23G29   30.33R
AKRON          FAIR      42  29  59 N26G36    30.30R
BURLINGTON     FAIR      49  34  56 N20G33    30.25R
WRAY           NOT AVBL
YUMA           FAIR      43  32  65 N18G25    30.27S
STERLING       CLOUDY    45  32  61 N18G31    30.32R
HOLYOKE        MOCLDY    46  32  57 NW7       30.28R
FORT MORGAN    FAIR      42  30  63 N32G41    30.32R
$$

COZ086-089-092>099-231400-
...SOUTHEAST COLORADO...

CITY           SKY/WX    TMP DP  RH WIND       PRES   REMARKS
PUEBLO         FAIR      45  27  49 CALM      30.23R
LA JUNTA       FAIR      42  31  64 W6        30.23R
LAMAR          FAIR      37  31  78 W5        30.21R
SPRINGFIELD      N/A     44  28  53 W8        30.20R
$$




USA.gov is the U.S. government's official web portal to all federal, state and local government web resources and services.